Regional Weather Roundup
Issued by NWS

Home | Current Version | Previous Version | Text Only | Print | Product List | Glossary On
Versions: 1 2 3 4 5 6 7 8 9 10 11 12 13 14 15 16 17 18 19 20 21 22 23 24 25 26 27 28 29 30 31 32 33 34 35 36 37 38 39 40 41 42 43 44 45 46 47 48 49 50
000
ASHW40 PHFO 040643
RWRHI

WEATHER ROUNDUP FOR HAWAII
NATIONAL WEATHER SERVICE HONOLULU HI
800 PM HST THU SEP 03 2015

THIS IS AN AUTOMATED REPORT THAT HAS NOT BEEN QUALITY CONTROLLED.

NOTE..."FAIR" INDICATES FEW OR NO CLOUDS BELOW 12,000 FEET WITH NO
SIGNIFICANT WEATHER AND/OR OBSTRUCTIONS TO VISIBILITY.

* - THESE SITES REPORT LIMITED FIELDS

HIZ001>004-040700-
KAUAI-NIIHAU-

CITY           SKY/WX    TMP DP  RH WIND       PRES   REMARKS
LIHUE APT      CLOUDY    81  75  83 E5        29.89R
PORT ALLEN*    NOT AVBL
POIPU*           N/A     79 N/A N/A N2          N/A
PRINCEVILLE*     N/A     79 N/A N/A MISG        N/A
KOKOLE POINT*  NOT AVBL
MOLOAA DAIRY*    N/A     77  75  94 E3          N/A
WAIMEA HTS*      N/A     79  70  73 E5G12       N/A
PUU OPAE*        N/A     72  66  83 E6          N/A
PUU LUA*       NOT AVBL
MAKAHA RIDGE*    N/A     73  72  94 CALM        N/A
$$

HIZ005>011-040700-
OAHU-

CITY           SKY/WX    TMP DP  RH WIND       PRES   REMARKS
HONOLULU       MOCLDY    79  74  85 CALM      29.88R
KALAELOA       CLOUDY    78  75  90 CALM      29.89R
KANEOHE MCB    CLOUDY    78  74  87 CALM      29.85S
WHEELER FIELD  MOCLDY    75  73  94 SE2       29.90R
BELLOWS*         N/A    N/A N/A N/A N1          N/A
KAHUKU*          N/A    N/A N/A N/A E2          N/A
WHEELER*       NOT AVBL
WAIANAE HARBOR NOT AVBL
DILLINGHAM*      N/A     75  73  94 MISG        N/A
KAHUKU TRN*      N/A     75  73  94 SE1         N/A
KAWAILOA*        N/A     73  72  94 SE3         N/A
KII*             N/A     77  75  94 SE2         N/A
MAKUA RANGE*     N/A     75  73  94 E3          N/A
OAHU FOREST NW   N/A     72  66  83 CALM        N/A
SCHOFIELD BRK*   N/A     72  70  94 MISG        N/A
SCHOFIELD S*   NOT AVBL
WAIANAE VLY*     N/A     84  81  89 MISG        N/A  HX  98
KUAOKALA*        N/A     75  72  88 S10         N/A
HONOULIUULI*   NOT AVBL
MOKUOLOE IS*     N/A    N/A N/A N/A MISG        N/A
PALEHUA*         N/A     70  68  94 E7G14       N/A
WAIAWA PHB*    NOT AVBL
$$

HIZ012>013-040700-
MOLOKAI-

CITY           SKY/WX    TMP DP  RH WIND       PRES   REMARKS
MOLOKAI AIRPT  PTCLDY    77  74  90 CALM      29.91R
KALAUPAPA      NOT AVBL
MAKAPULAPAI*     N/A     75  73  94 S3          N/A
MOLOKAI 1*       N/A     72  72 100 CALM        N/A
PUU ALII*        N/A     65  65 100 CALM        N/A
$$

HIZ016-040700-
KAHOOLAWE-

CITY           SKY/WX    TMP DP  RH WIND       PRES   REMARKS
KAHOOLAWE*       N/A     75 N/A N/A E15G23      N/A
HAKIOAWA*        N/A     77  74  91 MISG      30.32
HONOKANAIA*      N/A     82  74  78 N6G23       N/A
KANELOA*         N/A     79  73  83 E15G26    29.93R
KEALIALALO*      N/A     79  73  83 E10G18    29.89S
LUA MAKIKA*    NOT AVBL
$$

HIZ014>015-040700-
LANAI-

CITY           SKY/WX    TMP DP  RH WIND       PRES   REMARKS
LANAI CITY     FAIR      73  72  94 N8        29.96S
LANAI 1*         N/A     73  72  94 N7          N/A
$$

HIZ017>028-040700-
MAUI-

CITY           SKY/WX    TMP DP  RH WIND       PRES   REMARKS
KAHULUI        MOCLDY    81  73  76 NE10      29.87R
KAPALUA-W MAUI NOT AVBL
HANA AIRPORT   MOCLDY    79  73  83 SE3       29.93R
HANA*            N/A     81 N/A N/A E6G12       N/A
HALEAKALA SUMM   N/A     50  43  76 SE7         N/A
MAALAEA BAY*   NOT AVBL
HALEAKALA*     NOT AVBL
KAUPO GAP*       N/A     66  59  77 W2G8        N/A
KULA 1*          N/A     59  55  86 E2          N/A
$$

HIZ023>026-040700-
BIG ISLAND OF HAWAII COAST AND LOWER SLOPES-

CITY           SKY/WX    TMP DP  RH WIND       PRES   REMARKS
KAILUA KONA    CLOUDY    82  77  83 S7        29.85R HX  91
HILO           CLOUDY    80  73  79 CALM      29.90R
HONOKAA*       NOT AVBL
KAWAIHAE MWT*    N/A     84 N/A N/A SW2         N/A
KAWAIHAE*        N/A     84 N/A N/A E1          N/A
SOUTH POINT*     N/A     75 N/A N/A NE3         N/A
UPOLU AIRPORT*   N/A    N/A N/A N/A E10G16      N/A
KAMUELA*       NOT AVBL
HAKALAU*         N/A     53  48  84 SW3         N/A
KALOKO-HONOKO*   N/A     81  75  83 E6G12     29.85R
PALI 2*          N/A     70  68  94 NW6G12      N/A
KEALAKOMO*     NOT AVBL
KAUPULEHU*       N/A     75  70  83 SE7         N/A
KAPAPALA*        N/A     73  73  98 SW3         N/A
LOWER KAHUKU*    N/A     68  68 100 CALM        N/A
PUHE CS*         N/A     84  73  70 SW1         N/A  HX  91
PUHO CS*         N/A     80  77  91 SE2         N/A
PTA KEAMUKU*     N/A     64  61  88 CALM        N/A
WAIKOLOA*        N/A     75  70  83 E7          N/A
$$

HIZ027>028-040700-
BIG ISLAND OF HAWAII INTERIOR AND SUMMMITS-

CITY           SKY/WX    TMP DP  RH WIND       PRES   REMARKS
BRADSHAW FIELD PTCLDY    57  57 100 N1        30.27R
MK VISITOR CEN   N/A     52  34  50 E5          N/A
MAUNA KEA*       N/A     39  30  70 CALM        N/A
MAUNA LOA*       N/A     46  39  76 MISG        N/A
MAUNA LOA 1*   NOT AVBL
PTA KIPUKA*      N/A    N/A N/A N/A SE3         N/A
PTA RANGE 17*    N/A     61  57  88 S3          N/A
PTA WEST*        N/A    N/A N/A N/A SE7         N/A
NENE CABIN*      N/A     57  55  94 NE3         N/A
AHUMOA*          N/A     57  55  93 E5          N/A
PTA PORTABLE*  NOT AVBL
PUU MALI*        N/A     57  57 100 SW6         N/A
$$

HIC003-040700-
NORTHWEST ISLANDS-

CITY           SKY/WX    TMP DP  RH WIND       PRES   REMARKS
MIDWAY ISLAND  PTCLDY    84  75  74 E9        29.88R HX  92
MIDWAY NOS*      N/A     82 N/A N/A MISG      29.87S
FRENCH FRIGATE NOT AVBL
$$

PHZ110>124-180-040700-
BUOY REPORTS

STATION/POSITION TIME  TEMP    WIND        PRES    WAVE   SWELL
                       AIR SEA DIR/SP/G            HT/PER HT/DIR
                 (UTC) (F)     (DEG/KT/KT) (MB)    (FT/S) (FT/D)
BUOY 51001       0559   81 83  160/  4/  8 1011.0
BUOY 51101       0600   81 83  190/  4/  6 1010.6R   8/10   8/ 30
BUOY 51100       NOT AVBL
BUOY 51002       0600   83 85  100/  8/ 10 1010.8R  10/14  10/100
BUOY 51003       0600   83 85  130/  4/  6 1010.3R   7/12   7/ 70
BUOY 51004       0522   82 83   30/ 14/ 17 1010.5R  10/14  10/ 90
BARBERS PT BUOY  NOT AVBL
WAIMEA BAY BUOY  0600      83                N/A     5/10   3/350
KAILUA BAY BUOY  0600      83                N/A     7/14   5/ 90
LANAI BUOY       NOT AVBL
BARBERS PT 2     0600      83                N/A     4/18   3/180
PAUWELA MAUI     0600      82                N/A     9/14   7/ 90
HILO             NOT AVBL
KANEOHE BAY BUOY 0600      83                N/A     6/13   3/ 70
HANALEI KAUAI    0600      84                N/A     8/14   7/ 90
KAHULUI HARBOR   0600   81 83   50/  4/ 10 1011.6R
HONOLULU HARBOR  0600   80 83   50/  2/  3 1012.1R
KILO NALU        NOT AVBL
HILO HARBOR      0600   82 82  120/  2/  3 1012.3R
MOKUOLOE         0600   78 86  180/  2/  3 1011.7F
NAWILIWILI       0600   80 84  110/  4/  6 1011.6R
WHOTS BUOY       NOT AVBL
BUOY 51028       NOT AVBL
$$

......................KEY........................................
  SKY/WX - SKY CONDITIONS/PRESENT WEATHER
  TMP    - TEMPERATURE IN FAHRENHEIT
  DWPT   - DEWPOINT IN FAHRENHEIT
  RH     - RELATIVE HUMIDITY IN PERCENT
  WIND   - DIRECTION AND SPEED /MPH FOR ISLANDS...KTS FOR BUOYS/
  PRES   - MEAN SEA LEVEL PRESSURE IN INCHES OF HG
  VSB    - VISIBILITY IN MILES
  HX     - HEAT INDEX
  WCI    - WIND CHILL INDEX
  VRB    - VARIABLE WIND DIRECTION
  N/A    - NOT AVAILABLE



USA.gov is the U.S. government's official web portal to all federal, state and local government web resources and services.